Time,TemperatureF,DewpointF,PressureIn,WindDirection,WindDirectionDegrees,WindSpeedMPH,WindSpeedGustMPH,Humidity,HourlyPrecipIn,Conditions,Clouds,dailyrainin,SoftwareType,DateUTC
2013-11-24 00:02:00,26.2,10.6,29.88,South,189,2.8,7.4,47,-99.99,,,-99.99,WSDL version 420,2013-11-24 05:02:00,
2013-11-24 00:08:00,26.0,10.4,29.88,SE,146,3.9,4.9,47,-99.99,,,-99.99,WSDL version 420,2013-11-24 05:08:00,
2013-11-24 00:09:00,25.9,10.4,29.88,SE,131,3.6,4.9,47,-99.99,,,-99.99,WSDL version 420,2013-11-24 05:09:00,
2013-11-24 00:11:00,25.9,10.3,29.88,ESE,108,3.3,4.9,47,-99.99,,,-99.99,WSDL version 420,2013-11-24 05:11:00,
2013-11-24 00:12:00,25.9,10.3,29.88,SSE,150,3.2,4.9,47,-99.99,,,-99.99,WSDL version 420,2013-11-24 05:12:00,
2013-11-24 00:17:00,25.6,10.0,29.88,SSW,203,3.3,4.9,47,-99.99,,,-99.99,WSDL version 420,2013-11-24 05:17:00,
2013-11-24 00:23:00,25.7,10.3,29.88,SE,128,6.0,9.8,48,-99.99,,,-99.99,WSDL version 420,2013-11-24 05:23:00,
2013-11-24 00:29:00,25.5,10.0,29.88,ESE,113,3.6,9.8,47,-99.99,,,-99.99,WSDL version 420,2013-11-24 05:29:00,
2013-11-24 00:35:00,25.7,10.6,29.88,ESE,116,4.0,6.5,48,-99.99,,,-99.99,WSDL version 420,2013-11-24 05:35:00,
2013-11-24 00:38:00,25.7,10.4,29.88,SE,135,2.4,6.5,48,-99.99,,,-99.99,WSDL version 420,2013-11-24 05:38:00,
2013-11-24 00:44:00,25.5,10.1,29.88,South,185,2.5,6.3,48,-99.99,,,-99.99,WSDL version 420,2013-11-24 05:44:00,
2013-11-24 00:50:00,25.1,9.4,29.88,SSE,149,3.8,6.5,47,-99.99,,,-99.99,WSDL version 420,2013-11-24 05:50:00,
2013-11-24 00:56:00,25.0,9.5,29.88,SSE,167,2.0,6.5,47,-99.99,,,-99.99,WSDL version 420,2013-11-24 05:56:00,
2013-11-24 01:02:00,24.6,9.1,29.88,South,169,3.1,6.5,47,-99.99,,,-99.99,WSDL version 420,2013-11-24 06:02:00,
2013-11-24 01:06:00,24.5,9.0,29.88,WSW,253,4.8,6.7,47,-99.99,,,-99.99,WSDL version 420,2013-11-24 06:06:00,
2013-11-24 01:12:00,24.5,9.0,29.88,SW,230,4.3,6.7,47,-99.99,,,-99.99,WSDL version 420,2013-11-24 06:12:00,
2013-11-24 01:18:00,24.7,9.3,29.88,ENE,59,4.4,7.4,48,-99.99,,,-99.99,WSDL version 420,2013-11-24 06:18:00,
2013-11-24 01:24:00,24.3,9.2,29.88,South,189,4.4,7.4,48,-99.99,,,-99.99,WSDL version 420,2013-11-24 06:24:00,
2013-11-24 01:31:00,23.6,8.2,29.88,SSE,158,3.6,7.8,47,-99.99,,,-99.99,WSDL version 420,2013-11-24 06:31:00,
2013-11-24 01:37:00,23.5,8.5,29.88,SSE,153,3.0,4.3,48,-99.99,,,-99.99,WSDL version 420,2013-11-24 06:37:00,
2013-11-24 01:43:00,23.4,8.1,29.88,SE,126,4.6,7.8,47,-99.99,,,-99.99,WSDL version 420,2013-11-24 06:43:00,
2013-11-24 01:49:00,23.0,7.6,29.88,NNE,23,3.4,6.5,47,-99.99,,,-99.99,WSDL version 420,2013-11-24 06:49:00,
2013-11-24 01:55:00,23.0,7.6,29.88,ENE,72,2.9,6.0,47,-99.99,,,-99.99,WSDL version 420,2013-11-24 06:55:00,
2013-11-24 02:01:00,22.9,7.5,29.88,SE,146,4.7,5.8,47,-99.99,,,-99.99,WSDL version 420,2013-11-24 07:01:00,
2013-11-24 02:07:00,22.9,7.5,29.88,South,184,3.2,8.7,47,-99.99,,,-99.99,WSDL version 420,2013-11-24 07:07:00,
2013-11-24 02:13:00,22.9,7.5,29.88,SE,135,5.6,8.7,47,-99.99,,,-99.99,WSDL version 420,2013-11-24 07:13:00,
2013-11-24 02:19:00,22.8,7.3,29.91,NNE,28,3.2,6.3,47,-99.99,,,-99.99,WSDL version 420,2013-11-24 07:19:00,
2013-11-24 02:25:00,22.8,7.4,29.91,SSE,153,3.6,5.4,47,-99.99,,,-99.99,WSDL version 420,2013-11-24 07:25:00,
2013-11-24 02:31:00,22.9,7.5,29.91,SE,135,3.1,5.4,47,-99.99,,,-99.99,WSDL version 420,2013-11-24 07:31:00,
2013-11-24 02:37:00,23.0,7.5,29.91,SSE,162,3.7,4.3,47,-99.99,,,-99.99,WSDL version 420,2013-11-24 07:37:00,
2013-11-24 02:43:00,23.3,7.9,29.91,SW,230,3.2,4.9,47,-99.99,,,-99.99,WSDL version 420,2013-11-24 07:43:00,
2013-11-24 02:49:00,23.1,7.7,29.91,SW,233,3.4,4.9,47,-99.99,,,-99.99,WSDL version 420,2013-11-24 07:49:00,
2013-11-24 02:55:00,23.0,7.5,29.91,East,90,1.8,4.9,46,-99.99,,,-99.99,WSDL version 420,2013-11-24 07:55:00,
2013-11-24 03:01:00,23.1,7.4,29.91,East,90,4.3,6.3,46,-99.99,,,-99.99,WSDL version 420,2013-11-24 08:01:00,
2013-11-24 03:07:00,23.0,7.2,29.91,ESE,117,3.7,6.3,46,-99.99,,,-99.99,WSDL version 420,2013-11-24 08:07:00,
2013-11-24 03:13:00,22.8,7.2,29.91,SW,225,3.7,5.6,47,-99.99,,,-99.99,WSDL version 420,2013-11-24 08:13:00,
2013-11-24 03:19:00,22.5,6.7,29.91,East,99,3.1,5.8,46,-99.99,,,-99.99,WSDL version 420,2013-11-24 08:19:00,
2013-11-24 03:25:00,22.6,6.8,29.91,SE,144,3.0,8.1,46,-99.99,,,-99.99,WSDL version 420,2013-11-24 08:25:00,
2013-11-24 03:31:00,22.1,6.3,29.91,NW,315,1.7,8.1,46,-99.99,,,-99.99,WSDL version 420,2013-11-24 08:31:00,
2013-11-24 03:37:00,22.4,6.6,29.91,NW,304,3.5,4.3,46,-99.99,,,-99.99,WSDL version 420,2013-11-24 08:37:00,
2013-11-24 03:43:00,22.2,6.4,29.91,SW,219,2.8,6.0,46,-99.99,,,-99.99,WSDL version 420,2013-11-24 08:43:00,
2013-11-24 03:49:00,22.1,6.4,29.91,East,90,4.4,6.3,46,-99.99,,,-99.99,WSDL version 420,2013-11-24 08:49:00,
2013-11-24 03:55:00,22.2,6.5,29.91,ESE,113,3.8,6.3,46,-99.99,,,-99.99,WSDL version 420,2013-11-24 08:55:00,
2013-11-24 04:01:00,22.2,6.4,29.91,SSE,158,3.9,6.0,46,-99.99,,,-99.99,WSDL version 420,2013-11-24 09:01:00,
2013-11-24 04:07:00,22.3,6.2,29.91,NNW,341,3.1,5.6,45,-99.99,,,-99.99,WSDL version 420,2013-11-24 09:07:00,
2013-11-24 04:13:00,22.2,5.8,29.91,South,180,3.7,5.6,44,-99.99,,,-99.99,WSDL version 420,2013-11-24 09:13:00,
2013-11-24 04:19:00,22.1,5.9,29.91,SSW,208,3.5,5.8,45,-99.99,,,-99.99,WSDL version 420,2013-11-24 09:19:00,
2013-11-24 04:26:00,21.9,5.8,29.91,West,266,1.7,5.8,45,-99.99,,,-99.99,WSDL version 420,2013-11-24 09:26:00,
2013-11-24 04:32:00,21.9,6.0,29.91,SSE,167,3.5,5.8,46,-99.99,,,-99.99,WSDL version 420,2013-11-24 09:32:00,
2013-11-24 04:38:00,21.8,6.1,29.91,ENE,72,5.1,8.7,46,-99.99,,,-99.99,WSDL version 420,2013-11-24 09:38:00,
2013-11-24 04:44:00,21.7,5.9,29.91,SE,126,2.9,8.7,46,-99.99,,,-99.99,WSDL version 420,2013-11-24 09:44:00,
2013-11-24 04:50:00,21.8,6.1,29.91,ENE,63,2.1,5.4,46,-99.99,,,-99.99,WSDL version 420,2013-11-24 09:50:00,
2013-11-24 04:56:00,21.9,6.1,29.91,SE,126,5.0,8.9,46,-99.99,,,-99.99,WSDL version 420,2013-11-24 09:56:00,
2013-11-24 05:02:00,21.8,6.1,29.91,NNE,32,2.8,8.9,46,-99.99,,,-99.99,WSDL version 420,2013-11-24 10:02:00,
2013-11-24 05:08:00,21.6,5.6,29.91,SSE,158,2.6,6.5,46,-99.99,,,-99.99,WSDL version 420,2013-11-24 10:08:00,
2013-11-24 05:14:00,21.8,6.1,29.91,SSE,153,2.5,4.0,46,-99.99,,,-99.99,WSDL version 420,2013-11-24 10:14:00,
2013-11-24 05:20:00,21.9,6.2,29.91,South,185,3.7,4.7,46,-99.99,,,-99.99,WSDL version 420,2013-11-24 10:20:00,
2013-11-24 05:26:00,22.0,6.3,29.91,SSW,203,2.7,4.7,46,-99.99,,,-99.99,WSDL version 420,2013-11-24 10:26:00,
2013-11-24 05:32:00,22.1,6.4,29.91,SSW,207,2.5,4.3,46,-99.99,,,-99.99,WSDL version 420,2013-11-24 10:32:00,
2013-11-24 05:38:00,22.0,6.4,29.91,SSW,198,3.2,4.0,46,-99.99,,,-99.99,WSDL version 420,2013-11-24 10:38:00,
2013-11-24 05:44:00,21.9,6.3,29.91,NE,54,1.8,4.0,47,-99.99,,,-99.99,WSDL version 420,2013-11-24 10:44:00,
2013-11-24 05:50:00,21.9,6.3,29.91,SSE,158,2.3,3.4,46,-99.99,,,-99.99,WSDL version 420,2013-11-24 10:50:00,
2013-11-24 05:56:00,21.7,6.1,29.91,NNE,30,4.8,6.0,47,-99.99,,,-99.99,WSDL version 420,2013-11-24 10:56:00,
2013-11-24 06:02:00,21.7,6.1,29.91,East,96,2.0,6.0,47,-99.99,,,-99.99,WSDL version 420,2013-11-24 11:02:00,
2013-11-24 06:08:00,21.9,6.4,29.91,East,81,4.8,6.3,46,-99.99,,,-99.99,WSDL version 420,2013-11-24 11:08:00,
2013-11-24 06:14:00,21.8,6.3,29.91,NW,311,3.1,8.5,46,-99.99,,,-99.99,WSDL version 420,2013-11-24 11:14:00,
2013-11-24 06:20:00,21.7,6.2,29.91,SSE,150,4.3,5.8,47,-99.99,,,-99.99,WSDL version 420,2013-11-24 11:20:00,
2013-11-24 06:26:00,21.8,6.3,29.91,NE,36,6.4,9.8,46,-99.99,,,-99.99,WSDL version 420,2013-11-24 11:26:00,
2013-11-24 06:32:00,21.4,5.7,29.91,ENE,73,4.3,9.8,46,-99.99,,,-99.99,WSDL version 420,2013-11-24 11:32:00,
2013-11-24 06:38:00,21.6,5.8,29.91,SE,135,3.3,8.5,46,-99.99,,,-99.99,WSDL version 420,2013-11-24 11:38:00,
2013-11-24 06:44:00,21.6,5.9,29.91,WNW,287,2.8,7.4,46,-99.99,,,-99.99,WSDL version 420,2013-11-24 11:44:00,
2013-11-24 06:50:00,21.4,5.8,29.94,West,270,2.4,4.9,47,-99.99,,,-99.99,WSDL version 420,2013-11-24 11:50:00,
2013-11-24 06:56:00,21.2,5.9,29.94,ESE,113,2.8,5.6,47,-99.99,,,-99.99,WSDL version 420,2013-11-24 11:56:00,
2013-11-24 07:02:00,21.0,5.6,29.94,ESE,107,3.3,4.9,47,-99.99,,,-99.99,WSDL version 420,2013-11-24 12:02:00,
2013-11-24 07:08:00,21.2,5.5,29.94,SE,135,3.9,5.6,46,-99.99,,,-99.99,WSDL version 420,2013-11-24 12:08:00,
2013-11-24 07:14:00,21.1,5.4,29.94,SSW,210,3.0,5.4,46,-99.99,,,-99.99,WSDL version 420,2013-11-24 12:14:00,
2013-11-24 07:21:00,21.2,5.5,29.94,SE,139,3.5,7.2,46,-99.99,,,-99.99,WSDL version 420,2013-11-24 12:21:00,
2013-11-24 07:27:00,21.3,5.3,29.94,ESE,117,2.4,7.2,45,-99.99,,,-99.99,WSDL version 420,2013-11-24 12:27:00,
2013-11-24 07:33:00,21.4,5.7,29.94,ESE,104,3.7,7.6,46,-99.99,,,-99.99,WSDL version 420,2013-11-24 12:33:00,
2013-11-24 07:39:00,21.4,5.2,29.94,NE,34,2.9,5.4,44,-99.99,,,-99.99,WSDL version 420,2013-11-24 12:39:00,
2013-11-24 07:45:00,21.6,5.5,29.94,East,101,3.6,5.8,45,-99.99,,,-99.99,WSDL version 420,2013-11-24 12:45:00,
2013-11-24 07:51:00,21.7,5.6,29.94,SSE,158,3.9,5.8,45,-99.99,,,-99.99,WSDL version 420,2013-11-24 12:51:00,
2013-11-24 07:57:00,22.0,5.8,29.94,West,276,2.9,4.3,45,-99.99,,,-99.99,WSDL version 420,2013-11-24 12:57:00,
2013-11-24 08:03:00,22.4,6.2,29.94,ESE,113,3.2,5.6,45,-99.99,,,-99.99,WSDL version 420,2013-11-24 13:03:00,
2013-11-24 08:09:00,22.6,6.4,29.97,South,180,3.3,5.8,45,-99.99,,,-99.99,WSDL version 420,2013-11-24 13:09:00,
2013-11-24 08:15:00,22.9,6.7,29.97,ESE,105,3.1,6.3,45,-99.99,,,-99.99,WSDL version 420,2013-11-24 13:15:00,
2013-11-24 08:21:00,22.9,6.7,29.97,SE,143,3.5,7.2,45,-99.99,,,-99.99,WSDL version 420,2013-11-24 13:21:00,
2013-11-24 08:27:00,23.0,6.3,29.97,SE,129,3.2,7.8,44,-99.99,,,-99.99,WSDL version 420,2013-11-24 13:27:00,
2013-11-24 08:33:00,23.5,6.8,29.97,NW,323,6.0,10.5,44,-99.99,,,-99.99,WSDL version 420,2013-11-24 13:33:00,
2013-11-24 08:39:00,23.6,6.9,29.97,SW,216,4.0,10.5,44,-99.99,,,-99.99,WSDL version 420,2013-11-24 13:39:00,
2013-11-24 08:45:00,23.6,6.9,29.97,SSE,150,4.9,8.1,44,-99.99,,,-99.99,WSDL version 420,2013-11-24 13:45:00,
2013-11-24 08:51:00,23.6,6.9,29.97,ESE,113,3.3,7.8,44,-99.99,,,-99.99,WSDL version 420,2013-11-24 13:51:00,
2013-11-24 08:57:00,24.0,7.2,29.97,South,180,3.1,6.0,44,-99.99,,,-99.99,WSDL version 420,2013-11-24 13:57:00,
2013-11-24 09:03:00,24.0,7.3,29.97,East,98,6.7,12.5,44,-99.99,,,-99.99,WSDL version 420,2013-11-24 14:03:00,
2013-11-24 09:09:00,23.7,6.9,29.97,SE,141,6.7,12.5,44,-99.99,,,-99.99,WSDL version 420,2013-11-24 14:09:00,
2013-11-24 09:15:00,23.5,6.8,29.97,East,94,6.2,10.5,44,-99.99,,,-99.99,WSDL version 420,2013-11-24 14:15:00,
2013-11-24 09:21:00,23.7,6.9,30.00,East,101,5.1,10.5,44,-99.99,,,-99.99,WSDL version 420,2013-11-24 14:21:00,
2013-11-24 09:27:00,23.8,6.9,30.00,NNW,332,5.3,8.5,44,-99.99,,,-99.99,WSDL version 420,2013-11-24 14:27:00,
2013-11-24 09:33:00,24.4,7.5,30.00,ENE,68,4.9,7.8,44,-99.99,,,-99.99,WSDL version 420,2013-11-24 14:33:00,
2013-11-24 09:39:00,25.0,7.8,30.00,SSE,150,5.4,9.6,43,-99.99,,,-99.99,WSDL version 420,2013-11-24 14:39:00,
2013-11-24 09:45:00,24.9,7.6,30.00,South,185,5.4,9.6,43,-99.99,,,-99.99,WSDL version 420,2013-11-24 14:45:00,
2013-11-24 09:51:00,25.2,8.0,30.00,WSW,239,4.0,8.7,43,-99.99,,,-99.99,WSDL version 420,2013-11-24 14:51:00,
2013-11-24 09:57:00,25.5,8.2,30.00,NNE,32,4.5,8.7,43,-99.99,,,-99.99,WSDL version 420,2013-11-24 14:57:00,
2013-11-24 10:03:00,26.2,8.8,30.00,SSE,167,3.1,7.2,43,-99.99,,,-99.99,WSDL version 420,2013-11-24 15:03:00,
2013-11-24 10:09:00,26.0,8.6,30.00,SSE,152,6.4,8.1,43,-99.99,,,-99.99,WSDL version 420,2013-11-24 15:09:00,
2013-11-24 10:16:00,26.4,8.8,30.00,ESE,109,8.5,14.8,42,-99.99,,,-99.99,WSDL version 420,2013-11-24 15:16:00,
2013-11-24 10:22:00,27.1,9.2,30.00,SSE,149,5.1,14.8,42,-99.99,,,-99.99,WSDL version 420,2013-11-24 15:22:00,
2013-11-24 10:28:00,27.8,9.8,30.00,SSW,198,4.3,6.3,42,-99.99,,,-99.99,WSDL version 420,2013-11-24 15:28:00,
2013-11-24 10:34:00,27.5,9.4,30.00,SSE,153,3.5,6.0,42,-99.99,,,-99.99,WSDL version 420,2013-11-24 15:34:00,
2013-11-24 10:40:00,27.8,9.7,30.00,ESE,122,4.2,8.1,42,-99.99,,,-99.99,WSDL version 420,2013-11-24 15:40:00,
2013-11-24 10:46:00,28.5,10.1,30.00,SSE,167,3.6,8.1,41,-99.99,,,-99.99,WSDL version 420,2013-11-24 15:46:00,
2013-11-24 10:52:00,28.5,10.1,30.00,WSW,248,5.5,6.3,41,-99.99,,,-99.99,WSDL version 420,2013-11-24 15:52:00,
2013-11-24 10:58:00,27.6,9.1,30.00,South,189,3.8,6.5,41,-99.99,,,-99.99,WSDL version 420,2013-11-24 15:58:00,
2013-11-24 11:04:00,27.9,9.4,30.00,South,176,4.6,6.5,41,-99.99,,,-99.99,WSDL version 420,2013-11-24 16:04:00,
2013-11-24 11:10:00,28.0,9.8,30.00,SW,230,4.5,12.1,41,-99.99,,,-99.99,WSDL version 420,2013-11-24 16:10:00,
2013-11-24 11:16:00,28.6,10.1,30.00,North,8,5.2,8.9,41,-99.99,,,-99.99,WSDL version 420,2013-11-24 16:16:00,
2013-11-24 11:22:00,28.6,10.0,30.00,South,176,4.4,8.1,41,-99.99,,,-99.99,WSDL version 420,2013-11-24 16:22:00,
2013-11-24 11:28:00,29.2,10.5,30.00,SSE,162,3.1,6.0,40,-99.99,,,-99.99,WSDL version 420,2013-11-24 16:28:00,
2013-11-24 11:34:00,29.2,10.0,30.00,NNW,332,4.6,9.8,39,-99.99,,,-99.99,WSDL version 420,2013-11-24 16:34:00,
2013-11-24 11:40:00,28.7,8.0,30.00,SSE,161,4.4,10.3,35,-99.99,,,-99.99,WSDL version 420,2013-11-24 16:40:00,
2013-11-24 11:47:00,29.5,9.0,30.00,ESE,113,6.4,10.3,37,-99.99,,,-99.99,WSDL version 420,2013-11-24 16:47:00,
2013-11-24 11:53:00,30.0,9.5,30.00,SSE,152,4.6,7.4,38,-99.99,,,-99.99,WSDL version 420,2013-11-24 16:53:00,
2013-11-24 11:59:00,30.0,9.4,30.00,SE,140,4.6,10.5,36,-99.99,,,-99.99,WSDL version 420,2013-11-24 16:59:00,
2013-11-24 12:05:00,29.5,8.3,30.00,SE,124,7.0,10.5,36,-99.99,,,-99.99,WSDL version 420,2013-11-24 17:05:00,
2013-11-24 12:11:00,29.4,8.1,30.00,NE,36,2.1,8.7,35,-99.99,,,-99.99,WSDL version 420,2013-11-24 17:11:00,
2013-11-24 12:17:00,29.7,8.4,30.00,SSE,165,4.8,5.8,35,-99.99,,,-99.99,WSDL version 420,2013-11-24 17:17:00,
2013-11-24 12:23:00,29.7,7.8,30.00,East,79,4.5,8.5,35,-99.99,,,-99.99,WSDL version 420,2013-11-24 17:23:00,
2013-11-24 12:29:00,29.7,7.4,30.00,ESE,122,3.0,8.5,34,-99.99,,,-99.99,WSDL version 420,2013-11-24 17:29:00,
2013-11-24 12:35:00,29.8,6.7,30.03,ENE,63,4.8,10.5,33,-99.99,,,-99.99,WSDL version 420,2013-11-24 17:35:00,
2013-11-24 12:41:00,30.1,7.1,30.03,SE,135,4.8,7.2,34,-99.99,,,-99.99,WSDL version 420,2013-11-24 17:41:00,
2013-11-24 12:47:00,30.1,7.2,30.03,South,176,3.5,5.6,32,-99.99,,,-99.99,WSDL version 420,2013-11-24 17:47:00,
2013-11-24 12:53:00,29.9,7.0,30.03,ENE,59,3.2,6.3,32,-99.99,,,-99.99,WSDL version 420,2013-11-24 17:53:00,
2013-11-24 12:59:00,29.7,6.2,30.03,NE,34,3.3,7.8,32,-99.99,,,-99.99,WSDL version 420,2013-11-24 17:59:00,
2013-11-24 13:05:00,29.4,5.8,30.03,NNE,32,4.9,8.7,31,-99.99,,,-99.99,WSDL version 420,2013-11-24 18:05:00,
2013-11-24 13:11:00,29.4,4.7,30.03,SSW,203,4.4,8.7,32,-99.99,,,-99.99,WSDL version 420,2013-11-24 18:11:00,
2013-11-24 13:17:00,29.7,5.6,30.03,ENE,68,3.6,7.8,31,-99.99,,,-99.99,WSDL version 420,2013-11-24 18:17:00,
2013-11-24 13:23:00,29.6,5.5,30.03,SE,140,8.8,11.9,30,-99.99,,,-99.99,WSDL version 420,2013-11-24 18:23:00,
2013-11-24 13:29:00,29.1,3.8,30.03,WNW,293,4.8,13.0,25,-99.99,,,-99.99,WSDL version 420,2013-11-24 18:29:00,
2013-11-24 13:35:00,29.1,5.0,30.03,SE,146,5.0,10.3,31,-99.99,,,-99.99,WSDL version 420,2013-11-24 18:35:00,
2013-11-24 13:42:00,29.2,3.9,30.03,WSW,248,4.4,5.6,31,-99.99,,,-99.99,WSDL version 420,2013-11-24 18:42:00,
2013-11-24 13:48:00,29.1,3.5,30.03,SE,135,3.7,6.0,28,-99.99,,,-99.99,WSDL version 420,2013-11-24 18:48:00,
2013-11-24 13:54:00,29.0,2.2,30.03,SSW,207,4.5,11.0,28,-99.99,,,-99.99,WSDL version 420,2013-11-24 18:54:00,
2013-11-24 14:00:00,28.7,4.4,30.03,SE,128,5.8,11.0,29,-99.99,,,-99.99,WSDL version 420,2013-11-24 19:00:00,
2013-11-24 14:06:00,28.6,3.9,30.06,West,270,5.4,8.1,30,-99.99,,,-99.99,WSDL version 420,2013-11-24 19:06:00,
2013-11-24 14:12:00,28.5,3.9,30.06,SE,146,6.9,8.7,31,-99.99,,,-99.99,WSDL version 420,2013-11-24 19:12:00,
2013-11-24 14:18:00,28.0,3.2,30.06,East,81,3.3,8.7,31,-99.99,,,-99.99,WSDL version 420,2013-11-24 19:18:00,
2013-11-24 14:24:00,27.9,3.9,30.06,SSW,195,5.4,6.3,31,-99.99,,,-99.99,WSDL version 420,2013-11-24 19:24:00,
2013-11-24 14:30:00,27.6,-2.7,30.06,SE,140,2.9,9.4,21,-99.99,,,-99.99,WSDL version 420,2013-11-24 19:30:00,
2013-11-24 14:36:00,27.4,0.5,30.06,SE,135,5.1,6.3,26,-99.99,,,-99.99,WSDL version 420,2013-11-24 19:36:00,
2013-11-24 14:42:00,27.2,2.9,30.06,ENE,77,2.4,6.3,31,-99.99,,,-99.99,WSDL version 420,2013-11-24 19:42:00,
2013-11-24 14:48:00,27.0,0.1,30.06,SSE,158,4.5,8.7,26,-99.99,,,-99.99,WSDL version 420,2013-11-24 19:48:00,
2013-11-24 14:54:00,27.0,1.8,30.06,ESE,113,5.0,8.7,28,-99.99,,,-99.99,WSDL version 420,2013-11-24 19:54:00,
2013-11-24 15:00:00,26.8,1.1,30.06,ESE,113,4.3,9.8,23,-99.99,,,-99.99,WSDL version 420,2013-11-24 20:00:00,
2013-11-24 15:06:00,26.7,0.7,30.06,East,79,4.9,9.8,29,-99.99,,,-99.99,WSDL version 420,2013-11-24 20:06:00,
2013-11-24 15:13:00,26.7,1.6,30.09,NE,41,4.0,7.8,31,-99.99,,,-99.99,WSDL version 420,2013-11-24 20:13:00,
2013-11-24 15:19:00,26.5,1.3,30.09,SE,124,4.4,7.8,26,-99.99,,,-99.99,WSDL version 420,2013-11-24 20:19:00,
2013-11-24 15:25:00,26.7,3.4,30.09,NNW,343,2.5,5.8,31,-99.99,,,-99.99,WSDL version 420,2013-11-24 20:25:00,
2013-11-24 15:31:00,26.7,3.3,30.09,SSE,149,4.0,6.0,32,-99.99,,,-99.99,WSDL version 420,2013-11-24 20:31:00,
2013-11-24 15:37:00,26.2,3.0,30.09,SE,126,4.7,8.1,32,-99.99,,,-99.99,WSDL version 420,2013-11-24 20:37:00,
2013-11-24 15:43:00,25.8,2.7,30.09,South,171,4.7,8.1,32,-99.99,,,-99.99,WSDL version 420,2013-11-24 20:43:00,
2013-11-24 15:49:00,25.6,2.5,30.09,ESE,122,3.8,8.1,32,-99.99,,,-99.99,WSDL version 420,2013-11-24 20:49:00,
2013-11-24 15:55:00,25.4,2.3,30.12,SE,131,2.9,7.4,32,-99.99,,,-99.99,WSDL version 420,2013-11-24 20:55:00,
2013-11-24 16:01:00,25.3,2.7,30.12,SSE,162,5.1,8.7,33,-99.99,,,-99.99,WSDL version 420,2013-11-24 21:01:00,
2013-11-24 16:07:00,25.2,2.2,30.12,ESE,122,4.2,8.7,32,-99.99,,,-99.99,WSDL version 420,2013-11-24 21:07:00,
2013-11-24 16:12:00,24.9,2.7,30.12,North,8,4.4,5.8,34,-99.99,,,-99.99,WSDL version 420,2013-11-24 21:12:00,
2013-11-24 16:18:00,24.6,2.2,30.12,East,81,5.3,8.5,33,-99.99,,,-99.99,WSDL version 420,2013-11-24 21:18:00,
2013-11-24 16:24:00,24.5,2.1,30.12,East,79,5.8,8.5,33,-99.99,,,-99.99,WSDL version 420,2013-11-24 21:24:00,
2013-11-24 16:30:00,24.5,2.4,30.12,East,90,3.2,7.4,34,-99.99,,,-99.99,WSDL version 420,2013-11-24 21:30:00,
2013-11-24 16:36:00,24.6,2.7,30.12,East,81,3.5,5.8,34,-99.99,,,-99.99,WSDL version 420,2013-11-24 21:36:00,
2013-11-24 16:42:00,24.3,2.8,30.12,East,98,2.5,5.8,35,-99.99,,,-99.99,WSDL version 420,2013-11-24 21:42:00,
2013-11-24 16:48:00,24.2,3.0,30.12,WSW,243,2.2,6.3,35,-99.99,,,-99.99,WSDL version 420,2013-11-24 21:48:00,
2013-11-24 16:54:00,24.1,3.0,30.12,NNE,28,5.5,7.6,36,-99.99,,,-99.99,WSDL version 420,2013-11-24 21:54:00,
2013-11-24 17:00:00,24.1,3.4,30.12,SE,135,3.9,7.6,36,-99.99,,,-99.99,WSDL version 420,2013-11-24 22:00:00,
2013-11-24 17:06:00,23.7,3.2,30.12,South,188,4.3,6.7,37,-99.99,,,-99.99,WSDL version 420,2013-11-24 22:06:00,
2013-11-24 17:12:00,24.0,4.3,30.12,SE,131,3.9,4.9,38,-99.99,,,-99.99,WSDL version 420,2013-11-24 22:12:00,
2013-11-24 17:18:00,23.7,4.1,30.12,SSE,161,3.3,4.9,38,-99.99,,,-99.99,WSDL version 420,2013-11-24 22:18:00,
2013-11-24 17:24:00,23.5,4.2,30.15,South,189,1.3,4.9,39,-99.99,,,-99.99,WSDL version 420,2013-11-24 22:24:00,
2013-11-24 17:30:00,23.5,4.4,30.15,SW,231,1.8,3.6,39,-99.99,,,-99.99,WSDL version 420,2013-11-24 22:30:00,
2013-11-24 17:36:00,23.3,4.6,30.15,North,356,0.9,3.6,40,-99.99,,,-99.99,WSDL version 420,2013-11-24 22:36:00,
2013-11-24 17:42:00,23.2,4.6,30.15,SW,234,2.2,3.1,40,-99.99,,,-99.99,WSDL version 420,2013-11-24 22:42:00,
2013-11-24 17:48:00,22.9,5.0,30.15,ESE,117,1.9,3.1,42,-99.99,,,-99.99,WSDL version 420,2013-11-24 22:48:00,
2013-11-24 17:54:00,22.7,5.0,30.15,ENE,77,3.0,4.3,42,-99.99,,,-99.99,WSDL version 420,2013-11-24 22:54:00,
2013-11-24 18:00:00,22.8,5.2,30.15,ENE,59,0.9,4.3,42,-99.99,,,-99.99,WSDL version 420,2013-11-24 23:00:00,
2013-11-24 18:07:00,22.9,5.3,30.15,NE,56,2.1,4.7,42,-99.99,,,-99.99,WSDL version 420,2013-11-24 23:07:00,
2013-11-24 18:13:00,22.8,5.2,30.15,ESE,113,1.4,4.0,42,-99.99,,,-99.99,WSDL version 420,2013-11-24 23:13:00,
2013-11-24 18:19:00,22.7,5.4,30.15,SE,124,2.3,3.1,43,-99.99,,,-99.99,WSDL version 420,2013-11-24 23:19:00,
2013-11-24 18:25:00,22.8,5.6,30.15,NE,54,2.3,3.4,43,-99.99,,,-99.99,WSDL version 420,2013-11-24 23:25:00,
2013-11-24 18:31:00,23.0,5.9,30.15,ESE,117,2.3,3.8,43,-99.99,,,-99.99,WSDL version 420,2013-11-24 23:31:00,
2013-11-24 18:37:00,23.0,5.7,30.18,SE,144,2.7,3.8,43,-99.99,,,-99.99,WSDL version 420,2013-11-24 23:37:00,
2013-11-24 18:43:00,22.9,5.8,30.18,SSE,167,3.1,3.8,43,-99.99,,,-99.99,WSDL version 420,2013-11-24 23:43:00,
2013-11-24 18:49:00,22.8,6.1,30.18,SSE,158,3.1,3.8,44,-99.99,,,-99.99,WSDL version 420,2013-11-24 23:49:00,
2013-11-24 18:55:00,22.9,6.6,30.18,SSE,158,3.1,3.1,45,-99.99,,,-99.99,WSDL version 420,2013-11-24 23:55:00,
2013-11-24 19:01:00,22.9,6.9,30.18,North,-999,-999.0,-999.0,46,-99.99,,,-99.99,WSDL version 420,2013-11-25 00:01:00,
2013-11-24 19:07:00,22.8,7.0,30.18,North,-999,-999.0,-999.0,46,-99.99,,,-99.99,WSDL version 420,2013-11-25 00:07:00,
2013-11-24 19:13:00,23.0,7.2,30.18,North,-999,-999.0,-999.0,47,-99.99,,,-99.99,WSDL version 420,2013-11-25 00:13:00,
2013-11-24 19:19:00,22.8,7.3,30.18,North,-999,-999.0,-999.0,46,-99.99,,,-99.99,WSDL version 420,2013-11-25 00:19:00,
2013-11-24 19:25:00,22.7,7.2,30.18,North,-999,-999.0,-999.0,47,-99.99,,,-99.99,WSDL version 420,2013-11-25 00:25:00,
2013-11-24 19:31:00,22.8,7.4,30.18,North,-999,-999.0,-999.0,47,-99.99,,,-99.99,WSDL version 420,2013-11-25 00:31:00,
2013-11-24 19:37:00,22.8,7.2,30.18,North,-999,-999.0,-999.0,46,-99.99,,,-99.99,WSDL version 420,2013-11-25 00:37:00,
2013-11-24 19:43:00,22.6,6.8,30.18,North,-999,-999.0,-999.0,46,-99.99,,,-99.99,WSDL version 420,2013-11-25 00:43:00,
2013-11-24 19:49:00,22.6,6.8,30.18,North,-999,-999.0,-999.0,46,-99.99,,,-99.99,WSDL version 420,2013-11-25 00:49:00,
2013-11-24 19:55:00,22.8,7.0,30.18,North,-999,-999.0,-999.0,46,-99.99,,,-99.99,WSDL version 420,2013-11-25 00:55:00,
2013-11-24 20:01:00,22.8,7.0,30.18,North,-999,-999.0,-999.0,46,-99.99,,,-99.99,WSDL version 420,2013-11-25 01:01:00,
2013-11-24 20:07:00,22.8,6.6,30.18,North,-999,-999.0,-999.0,45,-99.99,,,-99.99,WSDL version 420,2013-11-25 01:07:00,
2013-11-24 20:13:00,22.8,6.6,30.18,SE,139,3.7,6.3,45,-99.99,,,-99.99,WSDL version 420,2013-11-25 01:13:00,
2013-11-24 20:19:00,22.8,6.5,30.18,ENE,68,1.8,6.3,45,-99.99,,,-99.99,WSDL version 420,2013-11-25 01:19:00,
2013-11-24 20:25:00,22.4,6.2,30.18,East,96,2.8,5.6,45,-99.99,,,-99.99,WSDL version 420,2013-11-25 01:25:00,
2013-11-24 20:31:00,22.4,6.2,30.18,ESE,117,1.8,5.6,45,-99.99,,,-99.99,WSDL version 420,2013-11-25 01:31:00,
2013-11-24 20:37:00,22.2,6.0,30.18,ENE,68,3.9,6.3,45,-99.99,,,-99.99,WSDL version 420,2013-11-25 01:37:00,
2013-11-24 20:43:00,22.2,6.0,30.18,South,191,2.4,6.3,45,-99.99,,,-99.99,WSDL version 420,2013-11-25 01:43:00,
2013-11-24 20:49:00,22.2,6.0,30.18,SSE,165,3.3,5.6,45,-99.99,,,-99.99,WSDL version 420,2013-11-25 01:49:00,
2013-11-24 20:55:00,21.9,5.7,30.18,SW,234,2.4,4.7,45,-99.99,,,-99.99,WSDL version 420,2013-11-25 01:55:00,
2013-11-24 21:02:00,21.9,5.7,30.18,SSE,152,4.1,9.8,45,-99.99,,,-99.99,WSDL version 420,2013-11-25 02:02:00,
2013-11-24 21:08:00,21.8,5.5,30.18,ESE,113,2.6,9.8,45,-99.99,,,-99.99,WSDL version 420,2013-11-25 02:08:00,
2013-11-24 21:14:00,21.9,5.7,30.18,SW,231,3.4,4.0,45,-99.99,,,-99.99,WSDL version 420,2013-11-25 02:14:00,
2013-11-24 21:20:00,21.8,5.4,30.18,South,176,3.2,4.0,44,-99.99,,,-99.99,WSDL version 420,2013-11-25 02:20:00,
2013-11-24 21:26:00,21.4,5.0,30.18,ESE,113,3.8,5.6,45,-99.99,,,-99.99,WSDL version 420,2013-11-25 02:26:00,
2013-11-24 21:32:00,21.5,5.1,30.18,SE,140,4.2,7.2,45,-99.99,,,-99.99,WSDL version 420,2013-11-25 02:32:00,
2013-11-24 21:38:00,21.4,5.0,30.18,SE,126,2.2,7.2,44,-99.99,,,-99.99,WSDL version 420,2013-11-25 02:38:00,
2013-11-24 21:44:00,21.3,5.0,30.18,SE,144,4.3,6.0,45,-99.99,,,-99.99,WSDL version 420,2013-11-25 02:44:00,
2013-11-24 21:50:00,21.2,5.1,30.21,West,270,2.0,6.0,45,-99.99,,,-99.99,WSDL version 420,2013-11-25 02:50:00,
2013-11-24 21:56:00,21.2,5.1,30.21,SSE,162,2.7,7.2,45,-99.99,,,-99.99,WSDL version 420,2013-11-25 02:56:00,
2013-11-24 22:02:00,-999.0,-99.9,30.21,South,180,2.6,7.2,-999,-99.99,,,-99.99,WSDL version 420,2013-11-25 03:02:00,
2013-11-24 22:08:00,21.2,5.0,30.21,WNW,302,1.6,3.4,45,-99.99,,,-99.99,WSDL version 420,2013-11-25 03:08:00,
2013-11-24 22:14:00,20.9,4.8,30.21,ESE,118,3.2,4.3,45,-99.99,,,-99.99,WSDL version 420,2013-11-25 03:14:00,
2013-11-24 22:20:00,20.8,4.7,30.18,WSW,255,1.6,6.5,45,-99.99,,,-99.99,WSDL version 420,2013-11-25 03:20:00,
2013-11-24 22:26:00,21.0,4.8,30.18,North,11,2.0,3.6,45,-99.99,,,-99.99,WSDL version 420,2013-11-25 03:26:00,
2013-11-24 22:32:00,21.0,4.9,30.18,ENE,71,2.4,4.0,45,-99.99,,,-99.99,WSDL version 420,2013-11-25 03:32:00,
2013-11-24 22:38:00,21.0,4.9,30.18,West,259,3.9,5.8,45,-99.99,,,-99.99,WSDL version 420,2013-11-25 03:38:00,
2013-11-24 22:44:00,20.8,4.7,30.18,East,79,2.2,4.7,45,-99.99,,,-99.99,WSDL version 420,2013-11-25 03:44:00,
2013-11-24 22:50:00,20.8,4.7,30.21,ESE,113,2.8,5.6,45,-99.99,,,-99.99,WSDL version 420,2013-11-25 03:50:00,
2013-11-24 22:56:00,20.8,4.7,30.21,SSW,203,1.2,5.6,45,-99.99,,,-99.99,WSDL version 420,2013-11-25 03:56:00,
2013-11-24 23:02:00,20.7,4.6,30.21,West,270,3.0,6.3,45,-99.99,,,-99.99,WSDL version 420,2013-11-25 04:02:00,
2013-11-24 23:08:00,20.7,4.9,30.21,NW,324,2.2,6.3,46,-99.99,,,-99.99,WSDL version 420,2013-11-25 04:08:00,
2013-11-24 23:13:00,20.8,5.1,30.21,NNW,338,3.2,4.3,46,-99.99,,,-99.99,WSDL version 420,2013-11-25 04:13:00,
2013-11-24 23:19:00,20.7,5.0,30.21,SE,129,1.6,3.8,46,-99.99,,,-99.99,WSDL version 420,2013-11-25 04:19:00,
2013-11-24 23:25:00,20.5,4.8,30.21,North,356,2.1,3.1,46,-99.99,,,-99.99,WSDL version 420,2013-11-25 04:25:00,
2013-11-24 23:31:00,20.3,4.6,30.21,ESE,105,4.3,4.9,46,-99.99,,,-99.99,WSDL version 420,2013-11-25 04:31:00,
2013-11-24 23:37:00,20.5,4.8,30.21,North,360,1.9,4.9,46,-99.99,,,-99.99,WSDL version 420,2013-11-25 04:37:00,
2013-11-24 23:43:00,20.5,4.9,30.21,NE,36,1.3,2.9,46,-99.99,,,-99.99,WSDL version 420,2013-11-25 04:43:00,
2013-11-24 23:49:00,20.6,4.9,30.21,North,360,2.7,4.3,46,-99.99,,,-99.99,WSDL version 420,2013-11-25 04:49:00,
2013-11-24 23:55:00,20.8,5.1,30.21,ESE,108,3.3,4.9,46,-99.99,,,-99.99,WSDL version 420,2013-11-25 04:55:00,